082  
ASUS44 KHUN 200810  
RWRHUN  
 
WEATHER ROUNDUP FOR THE TENNESSEE VALLEY  
NATIONAL WEATHER SERVICE HUNTSVILLE AL  
300 AM CDT SAT OCT 20 2018  
 
ALZ001>004-200900-  
NORTHWEST ALABAMA  
 
CITY SKY/WX TMP DP RH WIND PRES REMARKS
 
COURTLAND HCN N/A 61 N/A N/A CALM N/A  
RUSSELLVILLE N/A 61 N/A N/A MISG N/A  
SHOALS AIRPORT LGT RAIN 60 56 86 NW6 30.08F  
SHOALS TVA RES N/A 59 N/A N/A MISG N/A  

 
 
ALZ005>007-016-200900-  
NORTH CENTRAL ALABAMA  
 
CITY SKY/WX TMP DP RH WIND PRES REMARKS
 
CULLMAN AG STN N/A 63 N/A N/A CALM N/A  
DECATUR AP LGT RAIN 62 59 90 N7 30.06S  
HUNTSVILLE AP LGT RAIN 65 62 90 N5 30.05S  
MERIDIANVILLE DRIZZLE 59 57 93 NW6 30.07S  
REDSTONE ARSN LGT RAIN 63 57 82 N9 30.04S FOG  
VINEMONT AP LGT RAIN 62 58 88 CALM 30.07F  

 
 
ALZ008>010-200900-  
NORTHEAST ALABAMA  
 
CITY SKY/WX TMP DP RH WIND PRES REMARKS
 
ALBERTVILLE CLOUDY 64 64 100 SW5 30.04F  
FORT PAYNE CLOUDY 63 61 94 CALM 30.03F  
SCOTTSBORO AP CLOUDY 66 66 100 CALM 30.04F  
SCOTTSBORO HCN N/A 64 N/A N/A MISG N/A  
VALLEY HEAD N/A 63 N/A N/A MISG N/A  

 
 
TNZ076-096-097-200900-  
SOUTHEASTERN MIDDLE TENNESSEE  
 
CITY SKY/WX TMP DP RH WIND PRES REMARKS
 
TULLAHOMA CLOUDY 55 54 94 W6 30.07F  
WINCHESTER CLOUDY 57 55 94 CALM 30.07F  

 
   
..SURROUNDING SITES
 
 
 
CITY SKY/WX TMP DP RH WIND PRES REMARKS
 
ATLANTA CLOUDY 62 58 86 SW7 30.06F  
ANNISTON MOCLDY 64 61 90 CALM 30.06F  
BIRMINGHAM CLOUDY 69 64 84 CALM 30.07F  
CHATTANOOGA LGT RAIN 62 59 90 NW5 30.04F FOG  
CORINTH LGT RAIN 57 55 94 CALM 30.08F  
DALTON CLOUDY 61 59 94 CALM 30.06F  
GADSDEN CLOUDY 66 66 100 SW3 30.05F  
GOLDEN TRNGL CLOUDY 64 62 93 SW3 30.06F  
HALEYVILLE CLOUDY 62 56 80 NW3 30.09S  
JACKSON TN LGT RAIN 54 54 100 W7 30.10S FOG  
MEMPHIS CLOUDY 56 56 100 NW9 30.09F  
NASHVILLE LGT RAIN 55 52 89 W5 30.07F  
OXFORD MS CLOUDY 57 55 94 NW7 30.11F  
ROME MOCLDY 62 58 86 CALM 30.03F  
SAVANNAH CLOUDY 55 55 100 CALM 30.08F FOG  
SELMER CLOUDY 55 54 94 CALM 30.07F  
TUPELO LGT RAIN 60 56 86 NW6 30.08R  
TUSCALOOSA FAIR 67 64 90 CALM 30.05F  

 
   
..GULF COAST WEATHER
 
 
 
CITY SKY/WX TMP DP RH WIND PRES REMARKS
 
GULFPORT FOG 73 72 96 CALM 30.06F VSB 1/4  
PASCAGOULA MOCLDY 67 65 93 CALM 30.06F FOG  
MOBILE FOG 70 70 100 CALM 30.07F VSB 1/4  
GULF SHORES FAIR 70 70 100 CALM 30.06F  
PENSACOLA FAIR 72 72 100 CALM 30.05  
DESTIN FAIR 76 74 93 CALM 30.06F  
PANAMA CITY FAIR 74 73 95 E2 30.08F  

 
 
 
 
CLICK HERE TO GO TO PREVIOUS BULLETINS.

The Nexlab AL Page
The Nexlab TN Page Main Text Page